Vorticity
2 14 9 6 5 4 6 6 9 11 8 9 10 12 5 7 8 13 7 9 9 12 13 14 12 8 11 9 12 8 19 11 26 -4 52 -0 9 7 3 13 -17 -10 7 1 16 11 5
-8 2 19 8 3 6 5 6 8 9 10 10 10 11 10 5 9 15 7 8 7 11 11 15 11 9 8 6 11 17 6 7 49 -15 41 -9 7 -3 22 6 -18 2 21 -21 -0 10 7
3 3 3 8 5 6 5 6 8 6 10 10 10 8 14 5 10 16 9 7 5 12 10 14 14 9 9 1 6 13 13 1 25 32 33 -7 22 -9 30 6 30 -13 -27 -0 6 -1 8
10 -11 -2 9 -2 3 5 8 7 9 10 9 10 10 9 10 10 15 12 1 5 7 13 9 11 13 17 13 10 8 13 1 40 32 36 -11 -1 2 22 -10 19 34 -28 -29 17 24 5
7 6 2 3 5 5 6 6 6 8 9 11 9 12 9 14 10 12 11 7 4 6 9 16 10 10 15 12 6 9 11 4 13 25 12 -19 -13 17 -1 10 13 9 27 13 12 -0 16
18 -3 12 4 11 5 5 8 7 7 9 12 9 13 10 15 9 12 11 11 4 5 11 22 -4 22 -7 0 50 16 13 9 20 5 1 48 -8 5 11 8 3 2 -9 13 -1 -7 1
17 2 8 6 7 -3 4 8 8 6 10 13 11 12 11 15 9 13 14 9 9 6 3 10 10 17 6 32 42 15 12 14 3 2 4 -12 22 -1 9 3 7 14 9 17 4 31 10
-7 4 4 1 -3 8 6 8 8 6 11 13 13 9 14 12 9 13 15 10 9 5 5 10 9 10 10 35 28 18 9 -2 12 11 18 16 1 14 11 -0 14 15 9 15 11 1 16
5 6 3 5 13 2 5 8 7 6 11 12 14 9 14 13 9 12 14 11 10 13 6 -5 16 20 30 8 20 20 -4 29 23 -4 16 -1 16 17 12 7 9 18 9 5 2 13 8
10 3 11 8 -0 5 5 8 8 5 12 12 14 10 13 10 11 8 9 15 11 14 11 -4 19 11 13 9 -12 6 12 6 -1 -2 13 27 10 14 6 6 12 5 10 13 9 5 -15
5 8 7 2 6 0 9 7 8 5 12 10 13 11 13 12 10 10 12 12 12 9 10 9 6 4 15 28 10 8 16 -10 8 20 -6 29 -1 4 8 12 -0 16 -3 12 9 4 9
0 -0 7 5 8 2 11 7 8 5 12 9 12 10 14 12 12 8 10 11 10 8 6 7 19 5 8 6 3 13 20 4 12 33 -34 19 4 6 4 11 9 21 15 9 13 10 13
5 -2 0 7 6 1 11 6 8 5 12 10 12 12 13 11 10 9 11 17 6 16 15 11 10 -4 12 15 -10 4 15 13 11 -3 -7 22 18 5 -2 -7 7 5 -2 10 7 4 5
11 12 4 3 3 -8 8 5 9 5 12 10 11 14 9 12 11 10 14 12 9 13 6 12 11 6 15 9 10 3 12 11 25 -14 20 -5 26 -3 24 7 11 12 -10 -7 3 5 22
8 6 0 2 0 10 7 6 8 5 12 9 10 7 8 12 9 11 18 6 13 8 17 12 3 -10 4 11 12 0 4 7 31 35 6 -1 19 12 25 -3 9 5 14 4 12 3 13
6 3 7 3 9 6 -5 9 7 6 12 8 9 11 16 13 7 12 16 11 14 22 14 -1 3 6 11 15 10 11 14 15 7 -21 4 16 14 -2 40 7 1 8 3 5 -0 10 9
4 4 -1 1 6 7 -7 5 7 7 12 9 8 13 12 9 14 18 6 10 16 5 -3 3 13 14 13 4 24 4 7 28 2 -6 -3 12 13 25 19 -2 12 8 5 -12 14 -2 8
9 6 -6 1 10 6 -1 3 7 7 12 8 9 15 11 12 7 13 10 15 20 2 -1 7 6 13 9 8 7 5 23 8 12 -7 4 -1 22 16 -9 19 -9 2 2 7 -10 -5 4
12 6 10 21 6 12 -6 5 6 8 12 6 9 10 17 14 7 12 12 15 16 7 2 7 10 3 7 7 3 8 26 10 14 -3 10 4 22 6 30 13 24 3 1 8 8 1 17
10 7 3 -13 25 9 7 5 6 9 13 10 15 6 13 16 14 10 11 12 12 6 9 6 6 14 6 6 9 17 14 34 7 2 -7 -1 13 3 11 15 31 11 18 5 -4 -5 4
4 6 -20 34 11 10 4 8 6 9 11 9 12 9 5 -0 12 14 9 13 9 10 7 9 14 -2 4 9 5 11 8 19 14 10 8 -7 14 10 2 2 12 11 17 17 8 6 -5
12 3 7 7 17 0 -1 9 7 9 10 11 14 13 15 8 12 15 8 15 6 7 11 13 2 11 6 7 3 18 7 10 -4 15 9 6 7 12 4 4 3 4 4 14 22 11 10
18 -5 10 -0 5 9 -0 7 8 10 11 10 13 12 7 14 16 14 10 14 10 11 6 -0 2 8 8 10 8 10 6 6 0 13 17 10 8 16 17 14 8 28 26 9 11 16 12
38 -8 -3 -0 35 0 6 4 9 9 11 11 12 12 12 10 11 13 16 11 11 9 8 14 8 2 8 11 12 12 6 11 7 11 12 16 11 5 13 6 10 8 14 14 21 17 14
-2 -5 7 9 12 3 12 -1 7 10 11 11 14 12 10 6 10 11 14 14 8 8 6 5 10 15 14 13 5 10 15 12 14 9 11 6 5 8 -1 11 -23 15 12 7 5 16 7
1 14 -1 10 -2 11 22 2 6 12 12 12 13 11 10 6 14 14 14 13 11 8 6 4 17 12 13 5 1 12 6 11 16 17 8 11 4 -3 17 7 3 24 13 7 6 16 8
-4 17 0 -6 8 0 7 4 7 13 12 10 9 8 9 8 9 12 10 10 12 3 7 14 3 9 10 8 5 11 2 1 1 5 20 9 6 5 1 2 12 12 5 8 11 15 4
-9 22 3 -4 28 11 -1 4 7 12 11 7 8 11 11 13 19 13 8 14 11 12 1 22 7 12 13 -2 15 11 12 16 9 10 7 12 4 20 24 14 17 16 25 0 8 5 1
8 2 27 2 17 5 14 7 10 10 8 8 12 14 14 17 26 11 10 10 13 13 14 10 -8 29 2 10 4 8 10 10 8 10 19 9 -6 12 -8 21 4 20 -1 6 1 -3 3
Height
3137 3133 3129 3123 3118 3115 3109 3103 3100 3096 3091 3085 3080 3076 3071 3066 3062 3059 3055 3050 3045 3041 3036 3034 3031 3028 3027 3026 3026 3023 3023 3024 3026 3030 3036 3043 3051 3056 3062 3065 3068 3078 3087 3095 3099 3102 3108
3137 3132 3127 3123 3117 3112 3108 3101 3098 3093 3089 3083 3078 3073 3068 3064 3060 3056 3053 3048 3043 3039 3035 3032 3028 3026 3026 3026 3023 3021 3023 3023 3024 3028 3033 3042 3049 3057 3064 3068 3071 3076 3082 3092 3095 3102 3106
3136 3131 3126 3122 3116 3110 3105 3100 3095 3091 3086 3081 3075 3070 3065 3061 3058 3054 3050 3046 3043 3038 3035 3031 3028 3025 3025 3025 3021 3020 3021 3022 3022 3027 3034 3042 3045 3053 3063 3069 3072 3073 3083 3087 3091 3096 3101
3133 3129 3125 3120 3114 3109 3103 3099 3093 3088 3083 3078 3073 3068 3063 3059 3055 3051 3048 3045 3041 3038 3034 3030 3027 3025 3022 3021 3020 3019 3020 3022 3021 3023 3033 3040 3045 3052 3062 3068 3071 3076 3083 3090 3093 3088 3099
3129 3126 3122 3118 3112 3107 3102 3096 3091 3085 3080 3075 3070 3065 3061 3057 3053 3049 3046 3043 3040 3037 3034 3030 3027 3024 3022 3020 3018 3016 3019 3021 3024 3027 3034 3034 3042 3052 3059 3065 3073 3073 3077 3085 3089 3090 3095
3125 3123 3118 3115 3110 3104 3100 3095 3089 3083 3077 3072 3067 3062 3059 3054 3051 3048 3044 3041 3039 3037 3034 3030 3028 3026 3021 3017 3015 3014 3018 3021 3026 3030 3034 3037 3045 3052 3060 3064 3067 3071 3079 3086 3090 3091 3095
3122 3119 3116 3112 3107 3101 3097 3092 3087 3081 3075 3069 3064 3060 3057 3052 3049 3045 3043 3040 3041 3038 3035 3033 3030 3026 3021 3015 3011 3013 3019 3026 3028 3031 3035 3038 3042 3048 3056 3063 3070 3073 3079 3085 3090 3090 3095
3117 3115 3112 3109 3103 3098 3093 3089 3084 3078 3072 3066 3061 3057 3055 3051 3048 3044 3041 3039 3038 3038 3035 3033 3029 3025 3020 3014 3013 3017 3022 3029 3031 3033 3036 3043 3047 3054 3060 3065 3069 3073 3081 3084 3086 3087 3092
3112 3110 3107 3104 3100 3095 3091 3086 3081 3076 3070 3064 3058 3056 3053 3050 3047 3044 3041 3039 3037 3036 3036 3034 3030 3026 3022 3021 3020 3022 3026 3030 3034 3037 3041 3046 3051 3055 3061 3066 3070 3075 3081 3084 3086 3087 3093
3105 3104 3102 3099 3095 3092 3088 3084 3078 3073 3068 3062 3056 3054 3051 3049 3048 3043 3040 3037 3036 3035 3036 3037 3031 3031 3028 3027 3026 3028 3030 3035 3038 3041 3046 3049 3055 3058 3064 3069 3073 3076 3080 3083 3086 3089 3092
3097 3094 3096 3094 3091 3087 3084 3080 3075 3070 3065 3059 3054 3052 3049 3046 3045 3042 3041 3037 3036 3037 3035 3038 3036 3032 3031 3031 3033 3034 3034 3038 3042 3045 3052 3054 3056 3062 3066 3070 3073 3076 3078 3082 3086 3089 3088
3090 3086 3087 3088 3085 3083 3080 3076 3072 3067 3062 3057 3052 3050 3047 3046 3043 3041 3039 3037 3037 3039 3037 3038 3037 3037 3036 3035 3037 3038 3041 3044 3046 3049 3052 3055 3058 3063 3068 3069 3071 3074 3078 3082 3086 3088 3089
3078 3079 3078 3081 3079 3077 3075 3071 3068 3063 3059 3054 3050 3047 3045 3044 3043 3039 3038 3038 3038 3036 3039 3039 3039 3039 3039 3038 3039 3041 3042 3044 3048 3053 3055 3057 3060 3063 3066 3071 3073 3077 3081 3085 3088 3089 3085
3068 3069 3068 3072 3072 3071 3070 3067 3064 3060 3056 3052 3048 3045 3043 3042 3040 3038 3037 3038 3037 3037 3037 3038 3040 3041 3041 3041 3042 3043 3047 3048 3048 3051 3055 3059 3065 3064 3066 3072 3075 3077 3079 3079 3081 3080 3081
3058 3059 3059 3064 3066 3066 3065 3062 3059 3056 3053 3049 3046 3043 3041 3040 3039 3038 3038 3036 3036 3036 3038 3040 3041 3042 3043 3044 3044 3044 3047 3050 3051 3052 3057 3058 3060 3063 3066 3069 3074 3076 3077 3080 3081 3080 3079
3044 3047 3048 3055 3058 3059 3058 3057 3055 3053 3049 3046 3043 3041 3039 3037 3036 3036 3036 3035 3034 3035 3037 3041 3042 3042 3042 3044 3045 3045 3046 3048 3051 3053 3055 3057 3060 3063 3066 3070 3073 3074 3079 3081 3082 3081 3075
3030 3034 3037 3046 3048 3051 3052 3051 3050 3049 3045 3043 3040 3037 3036 3035 3033 3033 3034 3034 3034 3035 3036 3039 3040 3040 3042 3043 3044 3046 3048 3048 3051 3053 3055 3058 3060 3065 3067 3069 3071 3074 3075 3079 3080 3081 3076
3017 3025 3027 3035 3039 3043 3045 3045 3045 3044 3042 3040 3036 3035 3033 3032 3033 3031 3032 3032 3033 3035 3036 3037 3038 3042 3044 3044 3045 3047 3047 3048 3049 3053 3056 3057 3059 3062 3066 3065 3067 3069 3074 3076 3077 3080 3080
3006 3013 3018 3024 3031 3034 3038 3039 3039 3039 3037 3036 3033 3032 3030 3029 3029 3029 3030 3031 3032 3035 3036 3037 3040 3040 3041 3044 3047 3046 3045 3047 3049 3053 3056 3057 3059 3062 3066 3068 3066 3067 3070 3072 3075 3076 3076
2992 3002 3008 3015 3022 3026 3030 3032 3033 3034 3033 3032 3030 3029 3027 3026 3026 3028 3029 3031 3032 3034 3036 3037 3037 3037 3039 3042 3043 3044 3045 3046 3048 3051 3053 3055 3057 3057 3057 3057 3059 3061 3064 3068 3072 3072 3073
2980 2992 2999 3007 3014 3019 3023 3026 3027 3028 3028 3028 3027 3025 3024 3023 3024 3026 3027 3029 3031 3033 3034 3036 3037 3040 3042 3043 3044 3044 3045 3045 3048 3049 3051 3055 3055 3055 3055 3055 3056 3058 3060 3062 3064 3066 3068
2973 2983 2990 3000 3006 3011 3017 3020 3021 3023 3023 3023 3023 3022 3020 3021 3023 3024 3025 3027 3030 3032 3034 3035 3037 3038 3039 3042 3044 3045 3045 3046 3047 3048 3050 3051 3052 3053 3054 3055 3056 3056 3056 3056 3058 3061 3062
2964 2976 2983 2991 3000 3004 3010 3013 3015 3017 3018 3018 3018 3018 3019 3019 3020 3022 3024 3027 3029 3030 3032 3033 3034 3036 3037 3038 3040 3043 3044 3046 3047 3048 3048 3050 3051 3053 3055 3055 3055 3055 3051 3052 3053 3055 3057
2966 2970 2975 2983 2992 2998 3003 3008 3009 3011 3013 3014 3014 3014 3015 3017 3017 3019 3020 3023 3025 3028 3030 3031 3032 3035 3037 3038 3041 3043 3044 3045 3045 3046 3047 3049 3050 3052 3052 3054 3053 3047 3046 3047 3049 3051 3051
2941 2947 2965 2976 2985 2990 2996 3001 3002 3005 3008 3009 3010 3011 3012 3013 3015 3016 3018 3020 3023 3026 3028 3029 3030 3033 3034 3038 3040 3041 3043 3045 3045 3045 3046 3048 3050 3051 3052 3051 3048 3045 3044 3046 3046 3048 3047
2942 2953 2958 2970 2977 2984 2990 2994 2998 3001 3003 3005 3006 3007 3009 3011 3012 3013 3015 3017 3021 3024 3026 3027 3029 3031 3034 3036 3038 3041 3042 3042 3043 3044 3044 3047 3048 3050 3051 3050 3046 3043 3043 3044 3045 3047 3045
2944 2948 2955 2965 2971 2979 2984 2989 2992 2996 2999 3001 3003 3004 3006 3007 3008 3010 3012 3014 3017 3020 3024 3025 3027 3029 3033 3034 3037 3038 3038 3040 3041 3040 3042 3044 3046 3047 3047 3047 3046 3044 3043 3044 3046 3047 3042
2936 2945 2951 2960 2966 2973 2979 2984 2987 2992 2995 2997 2999 3000 3002 3003 3005 3007 3008 3011 3014 3018 3021 3022 3026 3027 3030 3033 3035 3036 3038 3038 3039 3040 3039 3040 3042 3043 3045 3045 3045 3041 3042 3045 3042 3040 3040
2922 2934 2947 2955 2961 2968 2973 2979 2984 2988 2991 2993 2995 2997 2998 3000 3003 3004 3006 3009 3012 3014 3017 3018 3020 3022 3026 3029 3032 3033 3035 3034 3037 3036 3037 3042 3041 3040 3042 3040 3039 3038 3038 3038 3038 3037 3036